This is the latest recevied weather packets stored in our database for station/object KF6ILA. If no packets are shown the sender has not sent any weather packets the latest 10 day(s).
| Time | Temp. | Humidity | Pressure | Rain* | Wind** | Luminosity | Snow |
|---|---|---|---|---|---|---|---|
| 1787435489 | 33.33° C | 36% | 1019.1 hPa | 0 mm | - | 833 W/m² | - |
| 1787435192 | 33.33° C | 36% | 1019.1 hPa | 0 mm | - | 844 W/m² | - |
| 1787434895 | 33.89° C | 37% | 1019 hPa | 0 mm | - | 860 W/m² | - |
| 1787434598 | 33.89° C | 34% | 1019.4 hPa | 0 mm | - | 865 W/m² | - |
| 1787434301 | 33.33° C | 36% | 1019.3 hPa | 0 mm | - | 875 W/m² | - |
| 1787434004 | 33.33° C | 37% | 1018.4 hPa | 0 mm | - | 886 W/m² | - |
| 1787433707 | 33.33° C | 35% | 1018.4 hPa | 0 mm | - | 891 W/m² | - |
| 1787433410 | 33.33° C | 37% | 1018.5 hPa | 0 mm | - | 898 W/m² | - |
| 1787433113 | 33.33° C | 36% | 1018.5 hPa | 0 mm | - | 905 W/m² | - |
| 1787432816 | 33.33° C | 37% | 1018.6 hPa | 0 mm | - | 914 W/m² | - |
| 1787432519 | 33.33° C | 37% | 1018.5 hPa | 0 mm | - | 919 W/m² | - |
| 1787431628 | 33.33° C | 35% | 1018.7 hPa | 0 mm | - | 942 W/m² | - |
| 1787431034 | 33.33° C | 36% | 1018.8 hPa | 0 mm | - | 951 W/m² | - |
| 1787430737 | 33.33° C | 35% | 1019 hPa | 0 mm | - | 954 W/m² | - |
| 1787430143 | 33.33° C | 33% | 1019 hPa | 0 mm | - | 960 W/m² | - |
| 1787429846 | 32.78° C | 34% | 1019.1 hPa | 0 mm | - | 962 W/m² | - |
| 1787429549 | 32.78° C | 33% | 1019 hPa | 0 mm | - | 967 W/m² | - |
| 1787428955 | 33.33° C | 32% | 1019.1 hPa | 0 mm | - | 969 W/m² | - |
| 1787428064 | 32.78° C | 31% | 1019.3 hPa | 0 mm | - | 970 W/m² | - |
| 1787427767 | 32.78° C | 31% | 1019.3 hPa | 0 mm | - | 970 W/m² | - |
| 1787427173 | 32.78° C | 31% | 1019.3 hPa | 0 mm | - | 969 W/m² | - |
| 1787426876 | 32.78° C | 31% | 1019.3 hPa | 0 mm | - | 970 W/m² | - |
| 1787426579 | 33.33° C | 30% | 1019.4 hPa | 0 mm | - | 969 W/m² | - |
| 1787426282 | 33.33° C | 31% | 1019.5 hPa | 0 mm | - | 962 W/m² | - |
| 1787425688 | 32.78° C | 30% | 1019.7 hPa | 0 mm | - | 960 W/m² | - |
* Rain latest hour (hover to see other rain measurements)
** Current wind speed in m/s (hover to see current wind gust speed)